User: anonymous   Login
Location: Chagrin Falls Park
(41.4139°N, 81.3865°W)
Time: 16:11:31
(UTC+00:00)
Language:

STARLINK-2754 - Orbit

View from above orbital plane
View from above orbital plane
View from above satellite
View from above satellite

Ground track
Ground track

The orbit data is extracted from the following two-line orbital elements,

1 48641C 21044D   21297.48436275 -.00002460  00000-0 -16482-3 0  2973
2 48641  53.0540  91.7444 0001379  95.6048 282.6451 15.06406250    11
Epoch (UTC): 24 October 2021 11:37:28
Eccentricity: 0.0001379
inclination: 53.0540°
perigee height: 546 km
apogee height: 548 km
right ascension of ascending node: 91.7444°
argument of perigee: 95.6048°
revolutions per day: 15.06406250
mean anomaly at epoch: 282.6451°
orbit number at epoch: 1

The dashed part of the orbit path shows where the satellite is in the earth's shadow,  

DLR